Terminal Aerodrome Forecast
Issued by NWS Boston, MA

Home | Current Version | Previous Version | Text Only | Print | Product List | Glossary On
Versions: 1 2 3 4 5 6 7 8 9 10 11 12 13 14 15 16 17 18 19 20 21 22 23 24 25 26 27 28 29 30 31 32 33 34 35 36 37 38 39 40 41
000
FTUS41 KBOX 242000 AAA
TAFBOS
TAF AMD
KBOS 242000Z 2420/2524 32020G35KT P6SM SKC
     FM250000 32015G25KT P6SM FEW250
     FM250500 31011KT P6SM SKC
     FM251500 23006KT P6SM FEW200
     FM251700 16005KT P6SM SCT150=

USA.gov is the U.S. government's official web portal to all federal, state and local government web resources and services.